Regional Weather Roundup
Issued by NWS Upton, NY

Current Version | Previous Version | Text Only | Print | Product List | Glossary On
Versions: 1 2 3 4 5 6 7 8 9 10 11 12 13 14 15 16 17 18 19 20 21 22 23 24 25 26 27 28 29 30 31 32 33 34 35 36 37 38 39 40 41 42 43 44 45 46 47 48 49 50
000 ASUS41 KOKX 271318 RWROKX REGIONAL WEATHER ROUNDUP NATIONAL WEATHER SERVICE NEW YORK NY 900 AM EDT MON JUL 27 2015 NOTE: "FAIR" INDICATES FEW OR NO CLOUDS BELOW 12,000 FEET WITH NO SIGNIFICANT WEATHER AND/OR OBSTRUCTIONS TO VISIBILITY. NYZ071-072-176-178-NJZ106-104-271400- NEW YORK CITY METRO AREA CITY SKY/WX TMP DP RH WIND PRES REMARKS CENTRAL PARK PTSUNNY 76 68 76 W5 30.05R LAGUARDIA APRT CLOUDY 77 64 64 S7 30.02R KENNEDY INTL CLOUDY 77 65 66 SW6 30.03R NEWARK/LIBERTY PTSUNNY 75 67 76 S5 30.02R BRNX BOT. GARD N/A 75 68 78 SE6 30.03R TETERBORO CLOUDY 76 64 66 S6 30.02R $$ NYZ177-179-078>081-271400- LONG ISLAND NEW YORK CITY SKY/WX TMP DP RH WIND PRES REMARKS FARMINGDALE CLOUDY 76 65 68 W6 30.04R ISLIP CLOUDY 77 68 73 CALM 30.02R SHIRLEY CLOUDY 77 68 73 W5 30.04R WESTHAMPTON LGT RAIN 75 72 90 SW9 30.05R MONTAUK POINT N/A 76 71 85 S6 30.04R $$ NYZ052-065-067-271400- HUDSON VALLEY CITY SKY/WX TMP DP RH WIND PRES REMARKS WHITE PLAINS CLOUDY 73 68 84 CALM 30.04R NEWBURGH MOSUNNY 70 68 94 VRB5 30.05R MONTGOMERY PTSUNNY 74 69 85 SW3 30.03 POUGHKEEPSIE PTSUNNY 73 68 84 CALM 30.02R ALBANY MOSUNNY 74 66 76 S6 30.02S $$ NJZ001-105-106-008-010-013-015-019>022-104-271400- NEW JERSEY CITY SKY/WX TMP DP RH WIND PRES REMARKS NEWARK/LIBERTY PTSUNNY 75 67 76 S5 30.02R TETERBORO CLOUDY 76 64 66 S6 30.02R CALDWELL PTSUNNY 73 66 78 VRB3 30.03R MORRISTOWN PTSUNNY 75 72 88 CALM 30.04R SOMERVILLE PTSUNNY 73 68 84 CALM 30.02R SUSSEX PTSUNNY 73 67 81 CALM 30.04R ANDOVER N/A 72 69 90 CALM 30.05R TRENTON PTSUNNY 74 69 85 W3 30.03R MILLVILLE CLOUDY 75 71 87 CALM 30.03R ATLANTIC CITY CLOUDY 74 71 91 CALM 30.03R WRIGHTSTOWN PTSUNNY 75 72 88 SW6 30.01S TOMS RIVER PTSUNNY 72 70 94 CALM 30.04R BELMAR CLOUDY 72 64 78 CALM 30.04R $$ PAZ047>061-062-071-271400- EASTERN PENNSYLVANIA CITY SKY/WX TMP DP RH WIND PRES REMARKS PHILADELPHIA CLOUDY 75 70 84 SE6 30.03R ALLENTOWN CLOUDY 73 68 84 S5 30.03S SCRANTON CLOUDY 71 66 84 CALM 30.05R $$ CTZ002-004>006-009-010-012-RIZ004-006-007-MAZ004-011-015-271400- SOUTHERN NEW ENGLAND IN CT CITY SKY/WX TMP DP RH WIND PRES REMARKS BRADLEY INTL CLOUDY 75 64 68 SW6 30.02R HARTFORD CLOUDY 75 67 76 S5 30.02R DANBURY CLOUDY 74 65 73 CALM 30.06R WTRBRY/OXFORD PTSUNNY 72 64 78 SW6 30.06R BRIDGEPORT LGT RAIN 71 69 93 SW5 30.03R FOG MERIDEN CLOUDY 74 67 78 S3 30.03R NEW HAVEN TSTM 71 68 90 SW5 30.04R FOG CHESTER LGT RAIN 70 68 94 SW6 30.06R GROTON LGT RAIN 72 67 84 NW5 30.03R WILLIMANTIC CLOUDY 73 66 78 S5 30.04R IN RI CITY SKY/WX TMP DP RH WIND PRES REMARKS PROVIDENCE CLOUDY 73 70 90 SW7 30.04R BLOCK ISLAND CLOUDY 73 72 94 S8 30.05R WESTERLY LGT RAIN 74 71 91 SW6 30.05R IN MA CITY SKY/WX TMP DP RH WIND PRES REMARKS BOSTON PTSUNNY 76 66 71 W5 30.01F WORCESTER PTSUNNY 71 64 78 SW9 30.05S WESTFIELD PTSUNNY 69 66 90 CALM 30.03R PROVINCETOWN PTSUNNY 73 64 73 S8 30.04S NANTUCKET CLOUDY 72 67 84 S9 30.06R $$ ANZ330-335-338-340-345-350-353-355-271400- COASTAL MARINE OBSERVATIONS STATION/POSITION TIME SKY/WX TEMP WIND PRES VSBY WAVE AIR SEA DIR/SP/G HT/PER (UTC) (F) (DEG/KT/KT) (MB) (MI) (FT/S) NY HARB ENTRANCE 1250 73 74 230/ 6/ 6 1016.6 2/11 4S FIRE IS NOT AVBL 20S FIRE ISLAND 1250 73 73 280/ 2/ 4 1016.9 2/11 GREAT SOUTH BAY 1215 76 78 300/ 8/ 12 N/A 23SW MTP 1250 74 73 210/ 4/ 6 1017.0 2/ 5 HUDSON CANYON NOT AVBL KINGS POINT 1200 75 69 210/ 2/ 4 1015.8 CENTRAL LI SOUND NOT AVBL EASTERN LI SOUND 1200 71 68 210/ 6/ 10 N/A ROBBINS REEF 1200 73 170/ 5/ 6 1015.2 $$ >>>>>>>>>>>>>>>>>>>>>>>>>>>> KEY <<<<<<<<<<<<<<<<<<<<<<<<<<< > < > SKY/WX - SKY CONDITION/PRESENT WEATHER < > TMP - TEMPERATURE IN FAHRENHEIT < > DP - DEWPOINT IN FAHRENHEIT < > RH - RELATIVE HUMIDITY IN PERCENT < > WIND - DIRECTION AND SPEED IN MPH < > PRES - MEAN SEA LEVEL PRESSURE IN INCHES OF HG < > WCI - WIND CHILL INDEX < > VSB - VISIBILITY IN MILES < > HX - HEAT INDEX < > TC - TEMPERATURE IN CELSIUS < > VRB - VARIABLE WIND DIRECTION < > < >>>>>>>>>>>>>>>>>>>>>>>>>>>> KEY <<<<<<<<<<<<<<<<<<<<<<<<<<<

USA.gov is the U.S. government's official web portal to all federal, state and local government web resources and services.